Weather History for Pitt Meadows, BC

Change the Weather History Date:

Tuesday, October 23, 2012

  Actual Average (CYXX) Record (CYXX)
Temperature  
Mean Temperature 43 °F -  
Max Temperature 46 °F 53 °F 68 °F (2007)
Min Temperature 40 °F 40 °F 34 °F (2013)
Degree Days  
Heating Degree Days 22    
Moisture  
Dew Point 40 °F    
Average Humidity 91    
Maximum Humidity 95    
Minimum Humidity 82    
Precipitation  
Precipitation 0.16 in - - ()
Sea Level Pressure  
Sea Level Pressure 29.84 in    
Wind  
Wind Speed 3 mph ()    
Max Wind Speed 7 mph    
Max Gust Speed -    
Averages and records for this station are not official NWS values.
T = Trace of Precipitation, MM = Missing Value Source: Averaged Metar Reports

Daily Weather History Graph

Daily Weather History Graph

Search for Another Location

Airport:

Trip Planner

Search our weather history database for the weather conditions in past years. The results will help you decide how hot, cold, wet, or windy it might be!

Date:

Astronomy

Oct. 23, 2012 Rise Set
Actual Time 7:45 AM PDT 6:04 PM PDT
Civil Twilight 7:12 AM PDT 6:36 PM PDT
Nautical Twilight 6:35 AM PDT 7:13 PM PDT
Astronomical Twilight 5:58 AM PDT 7:50 PM PDT
Moon 3:17 PM PDT (10/23) 1:12 AM PDT (10/23)
Length of Visible Light 11h 24m
Length of Day
10h 19m
Waxing Gibbous, 67% of the Moon is Illuminated
Oct 23
Waxing Gibbous
Oct 29
Full
Nov 6
Last Quarter
Nov 13
New
Nov 20
First Quarter

Hourly Weather History & Observations

Time (PDT) Temp. Windchill Dew Point Humidity Pressure Visibility Wind Dir Wind Speed Gust Speed Precip Events Conditions
1:00 AM 43.0 °F - 40.3 °F 90% 29.69 in - WSW 1.2 mph - N/A   Unknown
2:00 AM 42.8 °F - 40.6 °F 92% 29.71 in - South 2.3 mph - N/A   Unknown
4:00 AM 42.1 °F - 40.8 °F 95% 29.73 in - Calm Calm - N/A   Unknown
5:00 AM 42 °F - 41 °F 93% 29.74 in - East 2.3 mph - -  
5:00 AM 41.9 °F - 40.6 °F 95% 29.74 in - East 2.3 mph - 0.02 in   Unknown
6:00 AM 41.7 °F 39.8 °F 40.5 °F 95% 29.76 in - ESE 3.5 mph - 0.02 in   Unknown
9:00 AM 40.8 °F 37.8 °F 38.8 °F 93% 29.82 in - East 4.6 mph - 0.03 in   Unknown
10:00 AM 41.4 °F 38.4 °F 39.7 °F 94% 29.83 in - East 4.6 mph - 0.02 in   Unknown
11:00 AM 41 °F - 40 °F 93% 29.85 in - ESE 4.6 mph - -  
11:00 AM 41.4 °F 38.4 °F 39.7 °F 94% 29.85 in - ESE 4.6 mph - 0.04 in   Unknown
12:00 PM 41.4 °F 38.4 °F 39.9 °F 95% 29.87 in - East 4.6 mph - 0.03 in   Unknown
1:00 PM 43.7 °F 40.3 °F 41.4 °F 91% 29.88 in - NE 5.8 mph - N/A   Unknown
2:00 PM 44.6 °F 41.4 °F 41.2 °F 88% 29.88 in - NE 5.8 mph - N/A   Unknown
3:00 PM 44.8 °F 41.0 °F 41.7 °F 89% 29.88 in - NE 6.9 mph - N/A   Unknown
4:00 PM 45.9 °F 44.6 °F 42.6 °F 88% 29.88 in - NE 3.5 mph - N/A   Unknown
5:00 PM 45 °F - 41 °F 82% 29.88 in - NNE 4.6 mph - -  
5:00 PM 45.1 °F 42.8 °F 41.4 °F 87% 29.88 in - NNE 4.6 mph - N/A   Unknown
7:00 PM 43.3 °F 41.7 °F 39.7 °F 87% 29.89 in - East 3.5 mph - N/A   Unknown
8:00 PM 43.7 °F 39.7 °F 39.7 °F 86% 29.91 in - SSE 6.9 mph - N/A   Unknown
9:00 PM 42.8 °F 38.6 °F 39.7 °F 89% 29.92 in - ENE 6.9 mph - N/A   Unknown
10:00 PM 42.8 °F - 40.3 °F 91% 29.92 in - ESE 2.3 mph - N/A   Unknown
11:00 PM 42 °F - 40 °F 91% 29.93 in - ENE 2.3 mph - -  
11:00 PM 42.4 °F - 40.3 °F 92% 29.93 in - ENE 2.3 mph - N/A   Unknown